Location: Los Gatos B&B
(42.6926°N, 77.0646°W)
Time: 10:13:23
(UTC-04:00)

Cosmos 2263 Rocket - Visible Passes

Search period start: 29 May 2015 00:00
Search period end: 08 June 2015 00:00
Orbit: 825 x 847 km, 71.0° (Epoch: 28 May)

Date Brightness Start Highest point End Pass type
(mag) Time Alt. Az. Time Alt. Az. Time Alt. Az.
29 May 2.3 21:16:52 10° NNW 21:22:28 83° WSW 21:28:04 10° SSE visible
29 May 4.7 23:04:22 10° W 23:05:39 11° W 23:06:32 10° WSW visible
30 May 4.7 22:46:57 10° WNW 22:49:02 12° W 22:50:46 10° WSW visible
31 May 4.6 22:29:49 10° WNW 22:32:25 13° W 22:34:43 10° WSW visible
01 Jun 4.6 22:12:47 10° WNW 22:15:49 14° W 22:18:33 10° SW visible
02 Jun 4.6 21:55:51 10° WNW 21:59:12 16° W 22:02:18 10° SW visible
03 Jun 4.6 21:38:57 10° WNW 21:42:36 17° W 21:46:00 10° SW visible
04 Jun 4.6 21:22:05 10° WNW 21:25:58 19° W 21:29:40 10° SW visible
